EA4TN Weather Reports


time (UTC)temp
C
wind
direction
speed
KPH
gust
KPH
rain 1hr
cm
rain 24hr
cm
rain mn
cm
humidity
%
barometer
mb
20260903143516 37 257 4.8 9.7 0.00 0.00 0.00 11 1022.7
20260903142516 36 296 8.0 16.1 0.00 0.00 0.00 11 1022.6
20260903141516 36 258 4.8 11.3 0.00 0.00 0.00 14 1022.8
20260903140517 36 269 6.4 16.1 0.00 0.00 0.00 15 1022.9
20260903135556 36 214 3.2 11.3 0.00 0.00 0.00 16 1023.0
20260903134516 36 299 6.4 16.1 0.00 0.00 0.00 15 1023.2
20260903133516 36 355 6.4 17.7 0.00 0.00 0.00 15 1023.3
20260903132556 36 274 9.7 16.1 0.00 0.00 0.00 17 1023.5
20260903131516 36 285 3.2 12.9 0.00 0.00 0.00 18 1023.6
20260903130556 36 279 6.4 12.9 0.00 0.00 0.00 17 1023.6
20260903125516 35 260 8.0 17.7 0.00 0.00 0.00 18 1023.6
20260903124516 35 278 4.8 16.1 0.00 0.00 0.00 19 1023.7
20260903123516 35 15 4.8 14.5 0.00 0.00 0.00 20 1023.7
20260903122516 35 271 8.0 14.5 0.00 0.00 0.00 20 1023.8
20260903121517 34 250 4.8 14.5 0.00 0.00 0.00 23 1024.0
20260903120556 34 349 6.4 17.7 0.00 0.00 0.00 23 1024.0
20260903115516 34 217 4.8 12.9 0.00 0.00 0.00 28 1024.2
20260903114516 33 271 3.2 8.0 0.00 0.00 0.00 29 1024.1
20260903113516 33 129 3.2 11.3 0.00 0.00 0.00 30 1024.2
20260903112516 33 241 3.2 6.4 0.00 0.00 0.00 31 1024.3
20260903111556 32 253 1.6 6.4 0.00 0.00 0.00 33 1024.5
20260903110517 31 232 3.2 8.0 0.00 0.00 0.00 33 1024.4
20260903105516 31 227 3.2 8.0 0.00 0.00 0.00 36 1024.6
20260903104517 31 255 3.2 6.4 0.00 0.00 0.00 37 1024.6
20260903103516 31 254 3.2 4.8 0.00 0.00 0.00 37 1024.7
20260903102557 30 249 3.2 8.0 0.00 0.00 0.00 39 1024.7
20260903101516 30 257 1.6 4.8 0.00 0.00 0.00 43 1024.8
20260903100517 29 262 1.6 4.8 0.00 0.00 0.00 46 1024.7
20260903095556 29 243 1.6 4.8 0.00 0.00 0.00 47 1024.8
20260903094517 28 272 1.6 4.8 0.00 0.00 0.00 49 1024.7
20260903093516 28 258 3.2 6.4 0.00 0.00 0.00 50 1024.7
20260903092516 27 34 1.6 4.8 0.00 0.00 0.00 48 1024.7
20260903091516 27 39 1.6 6.4 0.00 0.00 0.00 48 1024.8
20260903090516 27 62 0.0 3.2 0.00 0.00 0.00 47 1024.7
20260903085516 26 58 1.6 4.8 0.00 0.00 0.00 47 1024.6
20260903084516 26 47 1.6 3.2 0.00 0.00 0.00 47 1024.6
20260903083516 25 47 1.6 6.4 0.00 0.00 0.00 48 1024.5
20260903082516 24 47 3.2 6.4 0.00 0.00 0.00 49 1024.3
20260903081516 23 38 3.2 6.4 0.00 0.00 0.00 50 1024.3
20260903080517 23 49 4.8 8.0 0.00 0.00 0.00 50 1024.4
20260903075516 22 40 4.8 11.3 0.00 0.00 0.00 52 1024.1
20260903074517 22 48 6.4 14.5 0.00 0.00 0.00 53 1024.2
20260903073516 22 47 9.7 16.1 0.00 0.00 0.00 54 1024.2
20260903072517 21 48 8.0 14.5 0.00 0.00 0.00 54 1024.2
20260903071556 21 49 8.0 14.5 0.00 0.00 0.00 55 1024.3
20260903070556 21 46 8.0 14.5 0.00 0.00 0.00 55 1024.1
20260903065516 21 46 8.0 14.5 0.00 0.00 0.00 55 1024.1
20260903064516 21 45 4.8 12.9 0.00 0.00 0.00 56 1024.2
20260903063517 20 46 6.4 12.9 0.00 0.00 0.00 56 1024.1
20260903062517 20 42 6.4 12.9 0.00 0.00 0.00 56 1023.9
20260903061516 20 46 6.4 14.5 0.00 0.00 0.00 56 1023.9
20260903060516 20 45 8.0 14.5 0.00 0.00 0.00 55 1023.7
20260903055516 20 45 6.4 14.5 0.00 0.00 0.00 55 1023.7
20260903054516 20 49 8.0 16.1 0.00 0.00 0.00 54 1023.6
20260903053516 20 48 8.0 12.9 0.00 0.00 0.00 53 1023.4
20260903052556 20 57 4.8 12.9 0.00 0.00 0.00 53 1023.4
20260903051517 20 50 8.0 14.5 0.00 0.00 0.00 52 1023.3
20260903050516 20 48 8.0 12.9 0.00 0.00 0.00 51 1023.1
20260903045517 21 48 6.4 11.3 0.00 0.00 0.00 50 1023.3
20260903044517 21 51 6.4 11.3 0.00 0.00 0.00 49 1023.4
20260903043517 21 47 4.8 14.5 0.00 0.00 0.00 49 1023.4
20260903042516 21 48 4.8 9.7 0.00 0.00 0.00 49 1023.3
20260903041516 21 46 4.8 11.3 0.00 0.00 0.00 48 1023.2
20260903040517 21 42 6.4 9.7 0.00 0.00 0.00 47 1023.2
20260903035516 21 50 3.2 6.4 0.00 0.00 0.00 46 1023.3
20260903034517 21 59 3.2 9.7 0.00 0.00 0.00 45 1023.1
20260903033516 22 56 4.8 9.7 0.00 0.00 0.00 45 1023.1
20260903032516 22 46 8.0 12.9 0.00 0.00 0.00 44 1023.0
20260903031517 22 42 6.4 11.3 0.00 0.00 0.00 43 1023.1
20260903030517 22 46 8.0 12.9 0.00 0.00 0.00 42 1023.1
20260903025516 22 45 9.7 14.5 0.00 0.00 0.00 43 1023.0
20260903024517 22 43 8.0 14.5 0.00 0.00 0.00 42 1023.1
20260903023516 22 50 4.8 11.3 0.00 0.00 0.00 42 1023.1
20260903022516 22 44 6.4 11.3 0.00 0.00 0.00 42 1023.0
20260903021516 22 66 3.2 9.7 0.00 0.00 0.00 41 1023.0
20260903020516 23 68 8.0 17.7 0.00 0.00 0.00 40 1023.1
20260903015517 23 60 8.0 12.9 0.00 0.00 0.00 39 1023.0
20260903014517 23 54 6.4 14.5 0.00 0.00 0.00 38 1023.0
20260903013516 23 53 8.0 17.7 0.00 0.00 0.00 37 1023.0
20260903012516 24 49 9.7 19.3 0.00 0.00 0.00 37 1023.0
20260903011557 24 48 11.3 24.1 0.00 0.00 0.00 36 1022.9
20260903010517 24 48 12.9 20.9 0.00 0.00 0.00 36 1022.9
20260903005516 24 49 12.9 22.5 0.00 0.00 0.00 36 1022.7
20260903004517 24 47 9.7 16.1 0.00 0.00 0.00 37 1022.5
20260903003557 24 48 9.7 14.5 0.00 0.00 0.00 38 1022.5
20260903002517 24 47 8.0 12.9 0.00 0.00 0.00 39 1022.5
20260903001517 24 47 4.8 11.3 0.00 0.00 0.00 40 1022.5
20260903000517 24 44 4.8 8.0 0.00 0.00 0.00 39 1022.5
20260902235516 25 44 4.8 8.0 0.00 0.00 0.00 39 1022.4
20260902234516 25 46 4.8 9.7 0.00 0.00 0.00 38 1022.4
20260902233516 25 45 4.8 8.0 0.00 0.00 0.00 38 1022.3
20260902232517 24 51 3.2 8.0 0.00 0.00 0.00 39 1022.4
20260902231556 24 43 6.4 11.3 0.00 0.00 0.00 39 1022.2
20260902230516 25 46 8.0 12.9 0.00 0.00 0.00 36 1022.3
20260902225516 25 267 1.6 3.2 0.00 0.00 0.00 36 1022.1
20260902224516 25 0.0 0.0 0.00 0.00 0.00 37 1021.8
20260902223516 25 0.0 0.0 0.00 0.00 0.00 36 1021.8
20260902222516 26 0.0 0.0 0.00 0.00 0.00 36 1021.8
20260902221556 26 0.0 0.0 0.00 0.00 0.00 35 1021.7
20260902220516 26 0.0 1.6 0.00 0.00 0.00 34 1021.7
20260902215516 26 267 1.6 1.6 0.00 0.00 0.00 33 1021.7
20260902214516 26 267 0.0 1.6 0.00 0.00 0.00 34 1021.5
20260902213516 26 267 1.6 1.6 0.00 0.00 0.00 34 1021.4
20260902212516 26 0.0 0.0 0.00 0.00 0.00 36 1021.4
20260902211517 27 0.0 0.0 0.00 0.00 0.00 35 1021.4
20260902210516 27 0.0 0.0 0.00 0.00 0.00 36 1021.4
20260902205516 27 0.0 0.0 0.00 0.00 0.00 35 1021.3
20260902204516 27 0.0 0.0 0.00 0.00 0.00 34 1021.0
20260902203556 27 0.0 0.0 0.00 0.00 0.00 34 1021.1
20260902202517 27 0.0 0.0 0.00 0.00 0.00 34 1021.0
20260902201516 27 0.0 0.0 0.00 0.00 0.00 33 1020.7
20260902200516 28 0.0 0.0 0.00 0.00 0.00 33 1020.8
20260902195516 28 0.0 0.0 0.00 0.00 0.00 32 1020.6
20260902194516 28 0.0 0.0 0.00 0.00 0.00 32 1020.3
20260902193516 29 0.0 0.0 0.00 0.00 0.00 31 1020.3
20260902192516 30 0.0 0.0 0.00 0.00 0.00 30 1020.2
20260902191556 30 0.0 0.0 0.00 0.00 0.00 30 1020.2
20260902190516 31 0.0 0.0 0.00 0.00 0.00 29 1020.1
20260902185516 32 267 0.0 1.6 0.00 0.00 0.00 27 1020.2
20260902184516 32 267 0.0 3.2 0.00 0.00 0.00 25 1020.1
20260902183516 33 267 0.0 3.2 0.00 0.00 0.00 24 1020.1
20260902182516 34 267 3.2 8.0 0.00 0.00 0.00 23 1020.2
20260902181516 34 268 3.2 6.4 0.00 0.00 0.00 22 1020.2
20260902180516 35 259 3.2 6.4 0.00 0.00 0.00 21 1020.2
20260902175556 35 279 3.2 8.0 0.00 0.00 0.00 22 1020.2
20260902174516 35 264 3.2 8.0 0.00 0.00 0.00 22 1020.3
20260902173516 36 267 1.6 4.8 0.00 0.00 0.00 21 1020.4
20260902172516 35 0.0 3.2 0.00 0.00 0.00 22 1020.2
20260902171516 35 287 3.2 8.0 0.00 0.00 0.00 22 1020.1
20260902170557 35 287 3.2 11.3 0.00 0.00 0.00 22 1020.2
20260902165517 35 285 4.8 9.7 0.00 0.00 0.00 22 1020.2
20260902164516 35 275 1.6 9.7 0.00 0.00 0.00 22 1020.4
20260902163516 36 264 3.2 9.7 0.00 0.00 0.00 22 1020.4
20260902162556 35 191 4.8 9.7 0.00 0.00 0.00 22 1020.5
20260902161556 35 278 4.8 12.9 0.00 0.00 0.00 22 1020.6
20260902160516 35 268 6.4 16.1 0.00 0.00 0.00 22 1020.6
20260902155516 35 244 6.4 14.5 0.00 0.00 0.00 22 1020.7
20260902154516 35 274 4.8 9.7 0.00 0.00 0.00 22 1020.7
20260902153516 35 348 4.8 12.9 0.00 0.00 0.00 23 1020.8
20260902152516 35 273 4.8 12.9 0.00 0.00 0.00 23 1020.8
20260902151517 35 316 3.2 11.3 0.00 0.00 0.00 23 1020.9
20260902150517 35 261 6.4 11.3 0.00 0.00 0.00 23 1021.0
20260902145516 34 267 6.4 12.9 0.00 0.00 0.00 23 1021.0
20260902144517 34 278 4.8 9.7 0.00 0.00 0.00 24 1021.1